DECAYED

NOAA 16 DEB, 42369 (Decayed)

Orbit data source: Space-Track

NOAA 16 DEB, 42369 was space debris in SSO originally from a launch on Thu, 21 Sep 2000 UTC launched from the Air Force Western Test Range (AFWTR). Debris objects in space refer to the collection of defunct objects orbiting the Earth. Examples of debris include non-operational satellites, rocket bodies, and fragments generated from explosions, collisions, or faulty payload assembly.

Not visible in the next 10 days
Identifier
42369, 2000-055RM
Orbit
Decayed
Country
Flag of USUS
Related business
Manufacturer
Unknown
Mission
Decayed spacecraft
Bus & Motor
Unknown
Mass
Unknown
Launch date (UTC)
2000-09-21 (25 years ago)
Launch vehicle
Unknown
Launch site
Air Force Western Test Range (AFWTR)
Object type
Payload
Rocket body
Debris
Shape & HBR
Unknown shape, 0.1 m
Radar Cross Section
Small (<0.1 m²)

Expand to show TLE details & history
Last TLE update: 2 months ago

TLE from 2 months ago
0 NOAA 16 DEB
1 42369U 00055RM  25221.89726395  .05077252  00000-0  37681-1 0  9999
2 42369  98.7324 355.7779 0036427 307.1884  52.6049 15.67570498493380
Epoch: 2025-08-09T21:32Z
TLE epoch observation values (Epoch: 2025-08-09T21:32:03.605Z)
Latitude
0.00001°
Longitude
74.1365°
Altitude
354.103 km
Speed
7.705 km/s
True Right ascension
23h 43m 06s
True Declination
0° 00' 00"
Sunlit
Object was in full shadow at epoch
Visualization orbit readout
Latitude
Unknown
Longitude
Unknown
Altitude
Unknown
Speed
Unknown
Apparent Right ascension
Unknown
Apparent Declination
Unknown
Sunlit
N/A
Visualization observer readout
Local Sidereal Time
12:41:31
Azimuth
Unknown
Elevation
Unknown
Doppler factor
Unknown
Orbital elements
Apogee altitude
387.377 km
Perigee altitude
338.267 km
Semi-major axis
6,740.959 km
Eccentricity
0.00364
Inclination
98.7324°
RAAN
355.7779°
Arg. of periapsis
307.1884°
True anomaly
52.93745°
Mean anomaly
52.6049°
Eccentric anomaly
52.77108°
Mean motion
3.92158 °/min
Orbital period
91.8 mins
BSTAR
0.037681
Loading maneuver chart data...
Computing Atmospheric mass density...

Documentation

Showing up to 5 results
|